www.pogodaiklimat.ru

Погода и климат >> Архив погоды >> Австралия >> Западная Австралия >> Саутерн Кросс


ПОГОДА в Саутерн Кросс

  • Прогноз погоды в Саутерн Кросс
  • Монитор погоды в Саутерн Кросс

АРХИВ ПОГОДЫ в Саутерн Кросс

Время (UTC), дата Ветер
(напр.,м/с)
 
Видим.   Явления Облачность Т
(С)
Тd
(С)
f
(%)
Тe
(С)
Тes
(С)
Комфортность P
(гПа)
Po
(гПа)
Тmin
(С)
Tmax
(С)
R
(мм)
R24
(мм)
S
(см)
16 14.07 В 5 н/о н/о +7.9 +3.4 73 +4 +4 1033.3 991.2
18 14.07 В 4 н/о н/о +6.6 +2.9 77 +3 +3 1033.4 991.3
19 14.07 СВ 5 н/о н/о +6.7 +3.0 77 +3 +3 1033.2 991.1
21 14.07 СВ 4 н/о н/о +5.2 +2.6 83 +1 +1 1033.5 991.4
22 14.07 СВ 3 н/о н/о +5.5 +2.8 83 +3 +3 1033.9 991.8
00 15.07 СВ 3 н/о н/о +7.2 +3.8 79 +4 +4 1034.4 992.2
01 15.07 СВ 5 н/о н/о +10.1 +4.9 70 +7 +7 1034.6 992.4 +5.0
03 15.07 С 7 н/о н/о +12.7 +5.6 62 +10 +10 1033.7 991.6
04 15.07 С 6 н/о н/о +14.2 +5.6 56 +13 +13 1032.4 990.3
06 15.07 СВ 4 н/о н/о +16.6 +4.6 45 +16 +16 1030.5 988.5
07 15.07 СВ 4 н/о н/о +17.3 +4.6 43 +17 +17 1030.1 988.1
09 15.07 СВ 3 н/о н/о +15.6 +4.9 49 +15 +15 1029.9 987.9
10 15.07 СВ 3 н/о н/о +12.0 +4.7 61 +11 +11 1030.0 988.0
12 15.07 В 3 н/о н/о +10.3 +4.0 65 +8 +8 1031.0 989.0
13 15.07 СВ 3 н/о н/о +7.4 +3.5 76 +5 +5 1031.3 989.3 +17.7
15 15.07 В 3 н/о н/о +6.7 +2.8 76 +4 +4 1031.3 989.3
16 15.07 СВ 2 н/о н/о +4.6 +2.8 88 +2 +2 1031.0 989.0
18 15.07 СВ 1 н/о н/о +3.1 +1.3 88 +3 +3 1030.9 988.9
19 15.07 штиль 0 н/о н/о +3.2 +1.9 91 +2 +2 1030.8 988.8
21 15.07 штиль 0 н/о н/о +1.5 +0.5 93 0 0 1030.7 988.7
22 15.07 штиль 0 н/о н/о +1.3 +0.4 94 0 0 1031.0 989.0
00 16.07 С 2 н/о н/о +5.2 +4.6 96 +2 +2 1031.7 989.7
01 16.07 С 3 н/о н/о +9.1 +5.7 79 +7 +7 1032.1 990.0 +0.4
03 16.07 СЗ 4 н/о н/о +13.5 +6.1 61 +12 +12 1031.5 989.5
04 16.07 С 4 н/о н/о +15.0 +5.2 52 +14 +14 1030.2 988.2
06 16.07 СЗ 3 н/о н/о +17.9 +3.0 37 +18 +18 1028.1 986.2
07 16.07 СЗ 3 н/о н/о +18.3 +2.6 35 +19 +19 1027.8 985.9
09 16.07 штиль 0 н/о н/о +18.0 +3.5 38 +18 +18 1028.1 986.2
10 16.07 ЮВ 2 н/о н/о +12.6 +4.6 58 +12 +12 1028.2 986.3
12 16.07 В 2 н/о н/о +7.8 +4.0 77 +6 +6 1028.5 986.6
13 16.07 штиль 0 н/о н/о +6.0 +3.7 85 +5 +5 1028.5 986.6 +18.7
15 16.07 штиль 0 н/о н/о +4.7 +2.6 86 +4 +4 1028.2 986.3
16 16.07 штиль 0 н/о н/о +3.9 +2.1 88 +3 +3 1027.7 985.8
18 16.07 штиль 0 н/о н/о +1.9 +0.4 90 +1 +1 1027.0 985.1
19 16.07 штиль 0 н/о н/о +1.4 +0.2 92 0 0 1026.5 984.7
21 16.07 штиль 0 н/о н/о +0.3 -0.8 92 -1 -1 1025.7 983.9
22 16.07 штиль 0 н/о н/о +0.1 -0.9 93 -1 -1 1025.6 983.8
00 17.07 штиль 0 н/о н/о +1.8 +0.9 94 +1 +1 1026.4 984.6
01 17.07 штиль 0 н/о н/о +7.6 +5.2 85 +7 +7 1026.5 984.7 -0.1
03 17.07 С 4 н/о н/о +14.9 +3.4 46 +14 +14 1025.7 983.9
04 17.07 С 5 н/о н/о +17.5 +2.7 37 +17 +17 1024.6 982.8
06 17.07 СЗ 6 н/о н/о +20.1 +1.0 28 +20 +20 1022.3 980.6
07 17.07 СЗ 4 н/о н/о +20.5 +0.9 27 +21 +21 комфорт 1021.6 980.0
09 17.07 С 3 н/о н/о +17.7 +3.9 40 +18 +18 1021.3 979.7
10 17.07 З 2 н/о н/о +13.9 +2.5 46 +14 +14 1021.4 979.8
12 17.07 штиль 0 н/о н/о +8.1 +3.2 71 +7 +7 1022.2 980.5
13 17.07 штиль 0 н/о н/о +6.9 +2.8 75 +6 +6 1022.5 980.8 +21.2
15 17.07 штиль 0 н/о н/о +4.5 +1.5 81 +4 +4 1022.3 980.6
16 17.07 штиль 0 н/о н/о +3.6 +1.0 83 +3 +3 1021.7 980.1
18 17.07 штиль 0 н/о н/о +2.4 +0.1 85 +1 +1 1021.2 979.6
19 17.07 штиль 0 н/о н/о +1.6 0.0 89 0 0 1021.2 979.6
21 17.07 ЮВ 1 н/о н/о +1.2 -0.4 89 +1 +1 1021.1 979.5
22 17.07 штиль 0 н/о н/о +0.8 -0.5 91 -0 -0 1021.7 980.1
00 18.07 С 2 н/о н/о +2.9 +1.6 91 0 0 1022.2 980.5
01 18.07 С 2 н/о н/о +8.3 +4.7 78 +6 +6 1022.4 980.7 +0.1
03 18.07 С 3 н/о н/о +15.8 +5.4 50 +15 +15 1021.7 980.1
04 18.07 СЗ 3 н/о н/о +18.0 +4.6 41 +18 +18 1020.8 979.2
06 18.07 С 2 н/о н/о +20.2 +2.1 30 +21 +21 комфорт 1018.5 977.0
07 18.07 С 3 н/о н/о +20.2 -0.4 25 +21 +21 комфорт 1018.2 976.7
09 18.07 СЗ 2 н/о н/о +18.5 +1.5 32 +19 +19 1017.8 976.3
10 18.07 ЮВ 2 н/о н/о +13.3 +1.9 46 +13 +13 1017.9 976.4
12 18.07 Ю 2 н/о н/о +8.4 +3.3 70 +7 +7 1018.4 976.9
13 18.07 ЮЗ 2 н/о н/о +7.2 +3.3 76 +6 +6 1018.4 976.9 +21.0
15 18.07 штиль 0 н/о н/о +4.5 +2.2 85 +4 +4 1017.9 976.4
16 18.07 штиль 0 н/о н/о +3.2 +1.3 87 +2 +2 1017.5 976.0
18 18.07 штиль 0 н/о н/о +2.1 +0.6 90 +1 +1 1016.1 974.7
19 18.07 штиль 0 н/о н/о +1.5 +0.2 91 0 0 1015.6 974.2
21 18.07 штиль 0 н/о н/о +1.4 +0.2 92 0 0 1014.2 972.9
22 18.07 штиль 0 н/о н/о +2.0 +0.7 91 +1 +1 1013.9 972.6
00 19.07 СЗ 2 н/о н/о +4.0 +1.5 84 +2 +2 1014.2 972.9
01 19.07 С 4 н/о н/о +9.6 +2.7 62 +7 +7 1014.0 972.7 +1.0
03 19.07 З 6 н/о н/о +18.2 +1.7 33 +18 +18 1012.8 971.5
04 19.07 З 9 н/о н/о +19.3 +0.4 28 +19 +19 1011.7 970.5
06 19.07 З 9 н/о н/о +21.3 -0.6 23 +21 +21 комфорт 1009.4 968.3
07 19.07 З 10 н/о н/о +20.4 -2.6 21 +19 +19 1008.8 967.7
09 19.07 З 9 н/о н/о +18.6 -1.8 25 +18 +18 1007.9 966.8
10 19.07 З 8 н/о н/о +17.1 -2.0 27 +16 +16 1007.6 966.5
12 19.07 СЗ 8 н/о н/о +15.4 +5.0 50 +14 +14 1007.8 966.7
13 19.07 З 10 н/о 10/10 1000 м
[]
+16.3 +5.9 50 +14 +14 1008.3 967.2 +21.4
15 19.07 З 6 н/о н/о +10.9 +9.7 92 +8 +8 1008.4 967.3
16 19.07 З 7 н/о в посл. час дождь {туман} 10/10 300 м
[]
+11.3 +10.2 93 +8 +8 1008.2 967.1
18 19.07 З 4 н/о н/о +9.8 +8.6 92 +7 +7 1010.0 968.8
19 19.07 ЮЗ 6 н/о в посл. час дождь {туман} 10/10 1000 м
[]
+8.2 +6.8 91 +4 +4 1011.2 970.0
21 19.07 З 4 н/о н/о +7.3 +5.8 90 +4 +4 1012.6 971.3
22 19.07 З 5 н/о н/о +6.8 +5.3 90 +3 +3 1013.2 971.9
00 20.07 З 6 н/о н/о +7.8 +5.9 88 +3 +3 1015.9 974.5
01 20.07 З 7 н/о {туман} н/о +9.2 +6.1 81 +5 +5 1017.2 975.7 +4.1
03 20.07 ЮЗ 7 н/о н/о +12.0 +5.4 64 +9 +9 1018.5 977.0
04 20.07 ЮЗ 9 н/о 10/10 600 м
[]
+12.9 +5.1 59 +10 +10 1018.6 977.1
06 20.07 ЮЗ 7 н/о н/о +13.6 +4.7 55 +11 +11 1018.1 976.6
07 20.07 ЮЗ 8 н/о 9/9 1000 м
[]
+14.8 +5.6 54 +13 +13 1018.4 976.9
09 20.07 ЮЗ 6 н/о н/о +12.9 +5.8 62 +11 +11 1019.4 977.9
10 20.07 З 4 н/о 8/8 1500 м
[]
+11.6 +6.1 69 +10 +10 1019.7 978.1
12 20.07 З 3 н/о н/о +8.5 +6.1 85 +6 +6 1020.8 979.2
13 20.07 З 4 н/о н/о +8.4 +6.4 87 +5 +5 1020.7 979.1 +16.5
15 20.07 З 4 н/о н/о +8.9 +6.9 87 +6 +6 1020.3 978.7
16 20.07 З 3 н/о н/о +7.4 +6.0 91 +5 +5 1019.9 978.3
18 20.07 С 3 н/о н/о +6.5 +5.6 94 +3 +3 1019.5 978.0
19 20.07 С 4 н/о н/о +6.5 +5.8 95 +3 +3 1019.3 977.8
21 20.07 С 2 н/о н/о +6.4 +6.0 97 +4 +4 1019.1 977.6
22 20.07 З 5 н/о 10/10 1000 м
[]
+8.4 +8.3 99 +5 +5 1019.3 977.8
00 21.07 СЗ 3 н/о н/о +8.9 +8.1 95 +7 +7 1019.7 978.1
01 21.07 З 6 н/о 10/10 300 м
[]
+10.9 +9.3 90 +8 +8 1020.2 978.6 +5.3
03 21.07 З 5 н/о н/о +12.2 +11.3 94 +10 +10 1019.4 977.9
04 21.07 З 7 н/о {туман} 10/10 300 м
[]
+14.2 +9.6 74 +12 +12 1018.5 977.0
06 21.07 З 9 н/о н/о +16.0 +9.0 63 +14 +14 1016.7 975.3
07 21.07 З 7 н/о {туман} 10/10 1000 м
[]
+17.4 +8.8 57 +16 +16 1016.4 975.0
09 21.07 З 8 н/о н/о +15.9 +7.9 59 +14 +14 1016.6 975.2
10 21.07 З 6 н/о 8/8 1000 м
[]
+14.9 +7.7 62 +13 +13 1017.0 975.6
12 21.07 ЮЗ 5 н/о н/о +12.8 +8.5 75 +11 +11 1017.7 976.2
13 21.07 З 6 н/о н/о +12.1 +8.6 79 +9 +9 1017.5 976.0 +17.6

 

Местоположение метеостанции Саутерн Кросс (Западная Австралия, Австралия): широта -31.23 долгота 119.35 высота над уровнем моря 348 м.

В архиве по умолчанию представлена погода в Саутерн Кросс за последнюю неделю. Архивные данные за месяц целиком и за предыдущие месяцы, начиная с января 2011 года, Вы можете получить, выбрав интересующий диапазон дат из раскрывающегося списка и нажав кнопку "Ввод!".


*Определитесь, кто Вы:
робот инопланетянин человек

Внимание! Время в таблицах - всемирное. Для получения местного времени необходимо прибавить поправку, которая равна 8 ч.

Смотрите также архив погоды в соседних городах и на ближайших метеорологических станциях:

Погода в Калгурли-Боулдере (Западная Австралия, Австралия) (206 км)
Погода в Кандердине (Западная Австралия, Австралия) (207 км)
Погода в Ньюдегейте (Западная Австралия, Австралия) (216 км)
Погода на Озере Грейс (Западная Австралия, Австралия) (224 км)
Погода в Норсмане (Западная Австралия, Австралия) (252 км)
Погода в Дауоллину (Западная Австралия, Австралия) (277 км)
Погода в Мунглинап Запад (Западная Австралия, Австралия) (288 км)
Погода в Салмон Гамс (Западная Австралия, Австралия) (289 км)
Погода в Джакапе (Западная Австралия, Австралия) (296 км)
Погода в Уондеринге (Западная Австралия, Австралия) (299 км)

Пояснения к столбцам:

Ветер - указаны скорость ветра в м/с - средняя за 10 мин, порывы в срок и между сроками (в фигурных скобках) и направление, откуда дует ветер: С - северный, СВ - северо-восточный, В - восточный, ЮВ - юго-восточный, Ю - южный, ЮЗ - юго-западный, З - западный, СЗ - северо-западный.
Видимость - горизонтальная дальность видимости в метрах или километрах. При видимости от 1 до 10 км при отсутствии осадков обычно наблюдается дымка, при ухудшении видимости до 1 км и менее - туман. В сухую погоду видимость может ухудшаться дымом, пылью или мглою.
Явления - указаны атмосферные явления, наблюдавшиеся в срок или в последний час перед сроком; фигурными скобками обозначены явления, наблюдавшиеся между сроками (за 1-3 часа до срока); квадратными скобками обозначены град или гололедные отложения с указанием их диаметра в мм.
Облачность - указаны через наклонную черту общая и нижняя облачность в баллах и высота нижней границы облаков в метрах; квадратными скобками обозначены формы облаков: Ci - перистые, Cs - перисто-слоистые, Cc - перисто-кучевые, Ac - высококучевые, As - высокослоистые, Sc - слоисто-кучевые, Ns - слоисто-дождевые, Cu - кучевые, Cb - кучево-дождевые. Подробнее классификацию облаков см. в Атласе облаков (PDF).
T - Температура воздуха - температура, измеренная на высоте 2 м над землей.
Td - Температура точки росы - температура, при понижении до которой содержащийся в воздухе водяной пар достигнет насыщения.
f - Относительная влажность воздуха - влажноcть воздуха, измеренная на высоте 2 м над землей.
Te - Эффективная температура - температура, которую ощущает одетый по сезону человек в тени. Характеристика душности погоды. При расчете учитывается влияние влажности воздуха и скорости ветра на теплоощущения человека.
Tes - Эффективная температура на солнце - температура, которую ощущает человек, с поправкой на солнечный нагрев. Характеристика знойности погоды. Зависит от высоты солнца над горизонтом, облачности и скорости ветра. Ночью, в пасмурную погоду, а также при ветре 12 м/с и более поправка равна нулю.
P - Атмосферное давление - приведенное к уровню моря атмосферное давление.
Po - Атмосферное давление - измеренное на уровне метеостанции атмосферное давление.
Tmin - Минимальная температура - минимум температуры воздуха на высоте 2 м над землей.
Tmax - Максимальная температура - максимум температуры воздуха на высоте 2 м над землей.
R - Количество осадков - Количество выпавших осадков за период времени, мм. При наведении курсора мыши на число - период времени, за который выпало указанное количество осадков.
R24 - Количество осадков - Количество выпавших осадков за 24 часа, мм.
S - Снежный покров - Высота снежного покрова, см. При наведении курсора мыши на число - состояние снежного покрова и степень покрытия местности в баллах.